Regional Weather Roundup
Issued by NWS

Home | Current Version | Previous Version | Text Only | Print | Product List | Glossary Off
Versions: 1 2 3 4 5 6 7 8 9 10 11 12 13 14 15 16 17 18 19 20 21 22 23 24 25 26 27 28 29 30 31 32 33 34 35 36 37 38 39 40 41 42 43 44 45 46 47 48 49 50

661
ASUS43 KMPX 191001
RWRMN
WEATHER ROUNDUP FOR MINNESOTA
NATIONAL WEATHER SERVICE TWIN CITIES/CHANHASSEN MN
500 AM CDT THU OCT 19 2017


NOTE: "FAIR" INDICATES FEW OR NO CLOUDS BELOW 12,000 FEET WITH NO
SIGNIFICANT WEATHER AND/OR OBSTRUCTIONS TO VISIBILITY. N/A MEANS
CURRENT SKY AND/OR WEATHER CONDITIONS ARE NOT AVAILABLE.

MNZ060>063-068>070-191100-
   Twin Cities Metro

CITY           SKY/WX    TMP DP  RH WIND       PRES   REMARKS
TWIN CITIES    CLOUDY    47  32  56 S5        30.04R
ST PAUL        CLOUDY    43  37  79 CALM      30.05R
CRYSTAL        CLOUDY    45  29  53 CALM      30.02R
BLAINE         CLOUDY    45  32  61 SW3       30.02R
LAKEVILLE      CLOUDY    36  34  93 W3        30.04S
EDEN PRAIRIE   PTCLDY    44  35  70 S5        30.03R
SOUTH ST PAUL  PTCLDY    46  31  56 CALM      30.04R
LAKE ELMO      FAIR      39  34  81 CALM      30.04R
$$
MNZ001>005-007-008-013>017-022>024-027-028-191100-
   Northwest Minnesota

CITY           SKY/WX    TMP DP  RH WIND       PRES   REMARKS
BEMIDJI        CLOUDY    40  24  52 SW6       29.93S
HALLOCK        CLOUDY    36  19  51 CALM      29.88S
ROSEAU         CLOUDY    39  27  60 SW9       29.87R
WARROAD        CLEAR     39  25  56 SW10      29.86R
CROOKSTON      CLOUDY    34  25  69 S8        29.92S WCI  27
FOSSTON        CLOUDY    34  23  64 S8        29.94R WCI  27
DETROIT LAKES  CLOUDY    41  30  65 S3        29.96S
MOORHEAD       PTCLDY    36  28  75 SE6       29.95S
PARK RAPIDS    CLOUDY    36  27  69 W6        29.95S
MAHNOMEN       FAIR      35  27  72 S5        29.94S WCI  31
$$
MNZ006-009>011-018-025>026-191100-
   North Central Minnesota

CITY           SKY/WX    TMP DP  RH WIND       PRES   REMARKS
BAUDETTE       CLEAR     43  20  39 W10       29.86R
FLAG ISLAND    PTCLDY    45  19  36 W14       29.82R
INTL FALLS     CLOUDY    41  20  43 SW7       29.85R
WASKISH        PTCLDY    46  34  61 W12       29.89R
BIG FORK       CLOUDY    36  25  64 SW5       29.90S
LONGVILLE      CLEAR     43  27  52 W3        29.95R
GRAND RAPIDS   CLOUDY    46  26  45 SW6       29.95R
CRANE LAKE     CLOUDY    45  16  31 W8        29.86R
ORR            CLEAR     43  19  39 W8        29.85R
COOK           CLEAR     43  21  42 W8        29.88R
WALKER         FAIR      43  24  47 W7        29.95R
$$
MNZ012-019>021-037-191100-
   Northeast Minnesota

CITY           SKY/WX    TMP DP  RH WIND       PRES   REMARKS
DULUTH         CLOUDY    43  25  49 W13       29.93R
ELY            CLOUDY    45  19  36 W9        29.86R
HIBBING        CLOUDY    41  23  48 W5        29.91R
EVELETH        CLOUDY    40  15  36 W7        29.91R
DULUTH HARBOR  CLOUDY    48  28  46 SW15      29.95R
TWO HARBORS    CLOUDY    43  27  52 S6        29.89R
SILVER BAY     CLOUDY    45  23  42 SW5       29.86R
GRAND MARAIS     N/A     41  30  65 CALM      29.81R
G MARAIS ARPRT CLEAR     43  12  28 W9G20     29.80R
$$
MNZ029>031-032-039>041-046>048-054>057-064-191100-
   West Central Minnesota

CITY           SKY/WX    TMP DP  RH WIND       PRES   REMARKS
FERGUS FALLS   CLOUDY    39  30  70 SE6       29.98S
WHEATON        CLOUDY    37  30  75 SE7       29.98F
MORRIS         CLOUDY    36  32  87 SE7       29.97F
ALEXANDRIA     CLOUDY    40  32  73 SW6       30.00
ELBOW LAKE     FAIR      34  32  93 CALM      29.98S
WADENA         CLOUDY    36  28  75 CALM      29.97S
GLENWOOD       CLEAR     37  32  81 SW5       30.00S
APPLETON       PTCLDY    39  32  75 S5        29.99S
BENSON         CLOUDY    34  30  86 CALM      30.01S
ORTONVILLE     CLOUDY    39  32  75 NE6       29.98S
MADISON        PTCLDY    43  34  70 S6        29.99F
WILLMAR        FAIR      37  34  87 SE3       30.02S
$$
MNZ033>034-036-042>043-049>051-058-059-191100-
   Central Minnesota

CITY           SKY/WX    TMP DP  RH WIND       PRES   REMARKS
ST CLOUD       CLOUDY    36  33  89 S5        30.01S
SAUK CENTRE    FAIR      37  31  79 CALM      30.00S
PAYNESVILLE    CLOUDY    36  32  87 CALM      30.02S
AITKIN         CLEAR     39  27  60 SW6       29.96R
PINE RIVER     CLOUDY    30  25  80 CALM      30.00S
BRAINERD       CLOUDY    39  28  64 SW9       29.98S
STAPLES        CLOUDY    37  27  65 CALM      29.97S
LONG PRAIRIE   FAIR      34  32  93 S6        30.00S WCI  29
LITTLE FALLS   CLOUDY    34  28  80 CALM      30.00S
LITCHFIELD     CLOUDY    43  34  70 CALM      30.03S
BUFFALO        CLOUDY    40  32  74 S3        30.04R
MAPLE LAKE     CLOUDY    39  33  80 CALM      30.03R
HUTCHINSON     CLOUDY    36  34  93 CALM      30.04S
$$
MNZ037-044-045-052-053-191100-
   East Central Minnesota

CITY           SKY/WX    TMP DP  RH WIND       PRES   REMARKS
PRINCETON      CLOUDY    39  30  70 CALM      30.01S
MORA           CLOUDY    37  30  75 CALM      30.02R
CAMBRIDGE      CLOUDY    45  30  57 SW3       30.02R
RUSH CITY      CLOUDY    42  31  65 CALM      30.01S
HINCKLEY       FAIR      36  32  87 SW3       30.00R
CLOQUET        CLOUDY    45  21  39 W7        29.95R
MCGREGOR       CLEAR     45  28  53 SW3       29.96S
$$
MNZ071>073-080-081-089-090-097-098-191100-
   Southwest Minnesota

CITY           SKY/WX    TMP DP  RH WIND       PRES   REMARKS
MONTEVIDEO     CLOUDY    39  30  70 SW6       30.01S
GRANITE FALLS  CLOUDY    40  33  76 SE3       30.03S
CANBY          CLOUDY    40  33  78 E5        30.00F
MARSHALL       CLOUDY    45  29  53 SW9       30.02S
REDWOOD FALLS  CLOUDY    40  32  73 SW3       30.02S
OLIVIA         CLOUDY    39  32  75 SE3       30.01S
PIPESTONE      CLOUDY    39  30  70 S5        30.03R
WORTHINGTON    CLOUDY    42  33  70 S8        30.05F
JACKSON        CLOUDY    39  32  75 S7        30.06S
TRACY          CLOUDY    46  32  56 SW8       30.02S
SLAYTON        CLOUDY    38  30  73 S6        30.04F
$$
MNZ065>067-074>077-082>085-091>093-191100-
   South Central Minnesota

CITY           SKY/WX    TMP DP  RH WIND       PRES   REMARKS
MANKATO        CLOUDY    40  35  83 SE8       30.05S
NEW ULM          N/A     37  30  75 S6        30.03S
ST JAMES       CLOUDY    39  34  81 SE6       30.05S
FAIRMONT       CLOUDY    37  33  85 CALM      30.06S
GLENCOE        CLOUDY    40  35  81 CALM      30.03S
FARIBAULT      PTCLDY    37  34  87 CALM      30.06R
OWATONNA       CLOUDY    39  34  81 CALM      30.06S
WASECA         CLOUDY    36  34  93 CALM      30.07R
$$
MNZ078>079-086>088-094>096-191100-
   Southeast Minnesota

CITY           SKY/WX    TMP DP  RH WIND       PRES   REMARKS
ROCHESTER      CLOUDY    41  32  70 SW5       30.07R
RED WING       CLOUDY    39  32  75 CALM      30.04S
STANTON        CLOUDY    39  33  80 S3        30.04S
DODGE CENTER   CLOUDY    39  30  70 CALM      30.06R
WINONA         PTCLDY    41  36  81 CALM      30.07R
AUSTIN         CLOUDY    37  34  87 CALM      30.07R
PRESTON        CLOUDY    46  27  49 N3        30.07S
$$
ABBREVIATIONS USED IN REMARKS
   TC - TEMPERATURES IN CELSIUS
  WCI - WIND CHILL INDEX
   HX - HEAT INDEX
  VSB - VISIBILITY
$$




USA.gov is the U.S. government's official web portal to all federal, state and local government web resources and services.